Kesslers Mill, Virginia
Current Conditions -  °F | °C
As of 3:54 AM on Sunday 21 Dec 2014 (Local Time) from KROA Reporting Station
Overcast Overcast  
Wind Chill: 35°   Ceiling: 4700
Heat Index: 35°   Visibility: 10mi
Dew Point: 27°   Wind: 0mph
Humidity: 72%   Direction: NA
Pressure: 30.25"   Gusts: NA
Location:  37.2956°N, 80.1166°W
Report Text: KROA 210854Z 00000KT 10SM FEW028 OVC047 02/M03 A3025 RMK AO2 SLP252 T00171028 50002
Loading
Personal Weather Stations






























Interactive Weather Map New forecast layout! Learn more

10-Day Weather Forecast

Advertisements
Track Severe Weather on mobile